Weather History for KLAR - March, 2013

Change the Weather History Date:

Tuesday, March 19, 2013

  Actual Average Record
Temperature  
Mean Temperature 27 °F 32 °F  
Max Temperature 40 °F 44 °F 67 °F (2004)
Min Temperature 14 °F 20 °F -18 °F (1965)
Degree Days  
Heating Degree Days 38 33  
Month to date heating degree days 621 675  
Since 1 July heating degree days 6525 6851  
Cooling Degree Days 0 0  
Month to date cooling degree days 0 0  
Year to date cooling degree days 0 0  
Moisture  
Dew Point 3 °F    
Average Humidity 52    
Maximum Humidity 88    
Minimum Humidity 15    
Precipitation  
Precipitation T in 0.02 in 0.17 in (1989)
Month to date precipitation 0.20 0.34  
Year to date precipitation 0.77 0.95  
Sea Level Pressure  
Sea Level Pressure 30.09 in    
Wind  
Wind Speed 18 mph (WNW)    
Max Wind Speed 38 mph    
Max Gust Speed 47 mph    
Visibility 10 miles    
Events      
T = Trace of Precipitation, MM = Missing Value Source: NWS Daily Summary

Daily Weather History Graph

Daily Weather History Graph

Search for Another Location

Airport or City:

Trip Planner

Search our weather history database for the weather conditions in past years. The results will help you decide how hot, cold, wet, or windy it might be!

Date:

Astronomy

Mar. 19, 2013 Rise Set
Actual Time 7:07 AM MDT 7:14 PM MDT
Civil Twilight 6:39 AM MDT 7:41 PM MDT
Nautical Twilight 6:07 AM MDT 8:13 PM MDT
Astronomical Twilight 5:34 AM MDT 8:46 PM MDT
Moon 11:56 AM MDT (3/19) 2:06 AM MDT (3/19)
Length of Visible Light 13h 02m
Length of Day
12h 06m
Waxing Crescent, 50% of the Moon is Illuminated
Mar 19
Waxing Crescent
Mar 27
Full
Apr 2
Last Quarter
Apr 10
New
Apr 18
First Quarter

Hourly Weather History & Observations

Time (MDT) Temp. Windchill Dew Point Humidity Pressure Visibility Wind Dir Wind Speed Gust Speed Precip Events Conditions
12:53 AM 27.0 °F 12.2 °F 8.1 °F 45% 29.87 in 10.0 mi West 24.2 mph 34.5 mph N/A   Clear
1:53 AM 28.0 °F 11.3 °F 8.1 °F 43% 29.86 in - West 34.5 mph 46.0 mph N/A   Clear
2:53 AM 27.0 °F 10.3 °F 7.0 °F 43% 29.90 in - West 32.2 mph 43.7 mph N/A   Clear
3:53 AM 25.0 °F 9.5 °F 3.9 °F 41% 29.95 in - WNW 24.2 mph 33.4 mph N/A   Clear
4:53 AM 23.0 °F 7.6 °F 3.9 °F 44% 29.98 in 10.0 mi WNW 21.9 mph 34.5 mph N/A   Clear
5:53 AM 19.0 °F 5.6 °F 12.9 °F 77% 30.05 in 10.0 mi North 13.8 mph - N/A   Mostly Cloudy
6:53 AM 16.0 °F 5.3 °F 12.9 °F 88% 30.10 in - NW 8.1 mph - 0.00 in   Mostly Cloudy
7:53 AM 17.1 °F 11.7 °F 12.9 °F 84% 30.13 in 10.0 mi SSW 3.5 mph - N/A   Clear
8:53 AM 24.1 °F 12.5 °F 8.1 °F 51% 30.11 in 10.0 mi SW 12.7 mph - N/A   Clear
9:53 AM 28.0 °F 15.7 °F 1.0 °F 31% 30.11 in - WNW 17.3 mph - N/A   Clear
10:53 AM 32.0 °F 20.5 °F -2.0 °F 23% 30.09 in - WNW 18.4 mph 26.5 mph N/A   Clear
11:53 AM 34.0 °F 21.0 °F -4.0 °F 20% 30.08 in - NW 26.5 mph 36.8 mph N/A   Clear
12:53 PM 36.0 °F 22.8 °F -5.1 °F 17% 30.06 in - WNW 31.1 mph 39.1 mph N/A   Clear
1:53 PM 37.9 °F 25.9 °F -7.1 °F 15% 30.05 in - WNW 28.8 mph 39.1 mph N/A   Clear
2:53 PM 39.0 °F 27.4 °F -6.0 °F 15% 30.04 in - NW 28.8 mph 40.3 mph N/A   Clear
3:53 PM 39.9 °F 30.0 °F -4.0 °F 16% 30.06 in - WNW 21.9 mph 35.7 mph N/A   Clear
4:53 PM 39.9 °F 29.5 °F -4.0 °F 16% 30.09 in - WNW 24.2 mph 34.5 mph N/A   Clear
5:53 PM 39.0 °F 28.3 °F -5.1 °F 15% 30.14 in 10.0 mi WNW 24.2 mph 31.1 mph N/A   Clear
6:53 PM 34.0 °F 24.6 °F -2.0 °F 22% 30.21 in - WNW 13.8 mph - N/A   Clear
7:53 PM 28.0 °F 18.6 °F -0.9 °F 29% 30.25 in - WNW 10.4 mph - N/A   Clear
8:53 PM 26.1 °F 20.5 °F 5.0 °F 41% 30.25 in 10.0 mi NNE 4.6 mph - N/A   Clear
9:53 PM 21.9 °F - 6.1 °F 51% 30.27 in - Calm Calm - N/A   Clear
10:53 PM 19.0 °F - 8.1 °F 62% 30.27 in 10.0 mi Calm Calm - N/A   Clear
11:53 PM 17.1 °F 4.3 °F 7.0 °F 65% 30.27 in 10.0 mi SSE 11.5 mph 17.3 mph N/A   Clear